Tracking 29892 objects as of 21-Nov-2024
HD Live streaming from Space Station
objects crossing your sky now

IRIDIUM 33 DEB

Track IRIDIUM 33 DEB now!
10-day predictions


NORAD ID: 39777
Int'l Code: 1997-051AAJ
Perigee: 698.7 km
Apogee: 801.9 km
Inclination: 86.0 °
Period: 99.7 minutes
Semi major axis: 7121 km
RCS: 0.0013 m2 (small)
Launch date: September 14, 1997
Source: United States (US)
Launch site: TYURATAM MISSILE AND SPACE COMPLEX (TTMTR)

Note: This is SATELLITE DEBRIS
Your satellite tracking list
Your tracking list is empty




NASA's NSSDC Master Catalog

Two Line Element Set (TLE):
1 39777U 97051AAJ 24325.53252275  .00012035  00000-0  33570-2 0  9993
2 39777  85.9654   1.5819 0072460  44.9149 315.7883 14.44641610572815
Source of the keplerian elements: AFSPC